Back to catalog

COSMOS 2507

AliveNavigationPO
NORAD 40920·PAYLOAD·🇷🇺 Russia

Launched Sep 23, 2015 from Plesetsk Cosmodrome

Loading…

Next Passes (next 24 hours)

TLE

FreshSource: Space-Track

Epoch: Sep 14, 2026, 13:56 UTC

1 40920U 15050A   26257.58103672 -.00000079  00000-0 -64075-3 0  9993
2 40920  82.4960  23.9964 0010455 151.2982 208.8675 12.42928662497965

Track COSMOS 2507 in real time with AllMySat

Download on the App Store